This demonstration page uses our WeatherBlox Daily Observations layout. Learn more.

39.08367, -84.50855

Hourly Observations for October 1, 2019

Temp ( °F °C ) Dew Point ( °F °C ) Humidity (%) Winds ( mph kmh ) Pressure ( in mb ) Visibility ( mi km ) Precip ( " mm )
12:53 am 00:53 Clear with Mist and Fog 69 20.6 68 20 96 96 Calm 30.05 1018 6 9.65604 0 0
1:53 am 01:53 Clear with Mist and Fog 69 20.6 68 20 96 96 Calm 30.04 1017 5 8.0467 0 0
2:53 am 02:53 Clear with Mist and Fog 68 20 68 20 100 100 Calm 30.04 1017 4 6.43736 0 0
3:38 am 03:38 Clear with Mist and Fog 67 19.4 67 19.4 100 100 Calm 30.04 1017 2 3.21868 0 0
3:53 am 03:53 Clear with Mist and Fog 67 19.4 67 19.4 100 100 Calm 30.04 1017 2.5 4.02335 0 0
4:07 am 04:07 Clear with Mist and Fog 68 20 67 19.4 96 96 Calm 30.05 1018 3 4.82802 0 0
4:25 am 04:25 Clear with Mist and Fog 66 18.9 66 18.9 100 100 Calm 30.05 1018 1.75 2.816345 0 0
4:36 am 04:36 Clear with Mist and Fog 67 19.4 66 18.9 97 97 Calm 30.05 1018 3 4.82802 0 0
4:53 am 04:53 Clear with Mist and Fog 67 19.4 66 18.9 97 97 Calm 30.05 1018 1 1.60934 0 0
4:57 am 04:57 Mostly Cloudy with Fog 66 18.9 66 18.9 100 100 Calm 30.06 1018 0.5 0.80467 0 0
5:04 am 05:04 Mostly Cloudy with Fog 66 18.9 66 18.9 100 100 Calm 30.06 1018 0.25 0.402335 0 0
5:10 am 05:10 Clear with Mist and Fog 66 18.9 66 18.9 100 100 Calm 30.06 1018 1 1.60934 0 0
5:22 am 05:22 Clear with Fog 65 18.3 65 18.3 100 100 Calm 30.06 1018 0.25 0.402335 0 0
5:38 am 05:38 Clear with Mist and Fog 66 18.9 66 18.9 100 100 Calm 30.07 1018 1 1.60934 0 0
5:50 am 05:50 Clear with Fog 66 19 66 19 100 100 Calm 30.07 1018 0.5 0.80467 0 0
5:53 am 05:53 Clear with Fog 66 18.9 66 18.9 100 100 Calm 30.06 1018 0.25 0.402335 0 0
6:08 am 06:08 Partly Cloudy with Mist and Fog 66 18.9 66 18.9 100 100 Calm 30.08 1019 1 1.60934 0 0
6:16 am 06:16 Mostly Clear with Fog 66 18.9 65 18.3 96 96 Calm 30.08 1019 0.5 0.80467 0 0
6:31 am 06:31 Mostly Clear with Mist and Fog 66 18.9 66 18.9 100 100 Calm 30.08 1019 2 3.21868 0 0
6:53 am 06:53 Clear with Mist and Fog 66 18.9 65 18.3 96 96 Calm 30.08 1019 1.75 2.816345 0 0
7:01 am 07:01 Clear with Mist and Fog 66 18.9 66 18.9 100 100 Calm 30.08 1019 2 3.21868 0 0
7:53 am 07:53 Mostly Cloudy with Mist and Fog 66 18.9 66 18.9 100 100 Calm 30.1 1019 4 6.43736 0 0
8:53 am 08:53 Sunny with Mist and Fog 70 21.1 69 20.6 97 97 Calm 30.1 1019 4 6.43736 0 0
9:53 am 09:53 Sunny 77 25 70 21.1 79 79 Calm 30.09 1019 8 12.87472 0 0
10:53 am 10:53 Sunny 84 28.9 70 21.1 63 63 S 7 11 30.09 1019 10 16.0934 0 0
11:53 am 11:53 Mostly Sunny 89 31.7 68 20 50 50 VRB 7 11 30.06 1018 10 16.0934 0 0
12:53 pm 12:53 Partly Cloudy 90 32.2 66 18.9 45 45 WSW 9 15 30.05 1018 10 16.0934 0 0
1:53 pm 13:53 Mostly Sunny 90 32.2 66 18.9 45 45 SSW 10 17 30.04 1017 10 16.0934 0 0
2:53 pm 14:53 Partly Cloudy 94 34.4 64 17.8 37 37 WSW 9 15 30.01 1016 10 16.0934 0 0
3:53 pm 15:53 Sunny 94 34.4 64 17.8 37 37 SW 10 17 30 1016 10 16.0934 0 0
4:53 pm 16:53 Partly Cloudy 93 33.9 63 17.2 37 37 WSW 14 22 29.99 1016 10 16.0934 0 0
5:53 pm 17:53 Mostly Sunny 92 33.3 63 17.2 38 38 W 10 17 29.98 1015 10 16.0934 0 0
6:53 pm 18:53 Sunny 89 31.7 63 17.2 42 42 W 8 13 29.98 1015 10 16.0934 0 0
7:53 pm 19:53 Clear 80 26.7 67 19.4 64 64 Calm 29.98 1015 10 16.0934 0 0
8:53 pm 20:53 Clear 74 23.3 67 19.4 79 79 Calm 29.98 1015 10 16.0934 0 0
9:53 pm 21:53 Clear 71 21.7 67 19.4 87 87 Calm 29.98 1015 10 16.0934 0 0
10:53 pm 22:53 Clear 70 21.1 67 19.4 90 90 Calm 29.97 1015 10 16.0934 0 0
11:53 pm 23:53 Clear 68 20 66 18.9 93 93 Calm 29.96 1015 10 16.0934 0 0

Powered by AerisWeather